Year,Month,Day,Hour,Minute,Value (Times are PST for temperature in C)
2015,07,09,00,00,16.10
2015,07,09,00,01,16.10
2015,07,09,00,02,16.10
2015,07,09,00,03,16.10
2015,07,09,00,04,16.10
2015,07,09,00,05,16.10
2015,07,09,00,06,16.10
2015,07,09,00,07,16.10
2015,07,09,00,08,16.00
2015,07,09,00,09,15.90
2015,07,09,00,10,15.90
2015,07,09,00,11,15.90
2015,07,09,00,12,15.80
2015,07,09,00,13,15.80
2015,07,09,00,14,15.80
2015,07,09,00,15,15.80
2015,07,09,00,16,15.80
2015,07,09,00,17,15.80
2015,07,09,00,18,15.80
2015,07,09,00,19,15.70
2015,07,09,00,20,15.70
2015,07,09,00,21,15.60
2015,07,09,00,22,15.60
2015,07,09,00,23,15.50
2015,07,09,00,24,15.50
2015,07,09,00,25,15.50
2015,07,09,00,26,15.50
2015,07,09,00,27,15.40
2015,07,09,00,28,15.40
2015,07,09,00,29,15.40
2015,07,09,00,30,15.30
2015,07,09,00,31,15.30
2015,07,09,00,32,15.30
2015,07,09,00,33,15.30
2015,07,09,00,34,15.30
2015,07,09,00,35,15.30
2015,07,09,00,36,15.30
2015,07,09,00,37,15.20
2015,07,09,00,38,15.20
2015,07,09,00,39,15.20
2015,07,09,00,40,15.20
2015,07,09,00,41,15.10
2015,07,09,00,42,15.10
2015,07,09,00,43,15.10
2015,07,09,00,44,15.10
2015,07,09,00,45,15.10
2015,07,09,00,46,15.00
2015,07,09,00,47,15.00
2015,07,09,00,48,15.00
2015,07,09,00,49,15.00
2015,07,09,00,50,15.00
2015,07,09,00,51,14.90
2015,07,09,00,52,14.90
2015,07,09,00,53,14.80
2015,07,09,00,54,14.80
2015,07,09,00,55,14.80
2015,07,09,00,56,14.80
2015,07,09,00,57,14.70
2015,07,09,00,58,14.70
2015,07,09,00,59,14.60
2015,07,09,01,00,14.60
2015,07,09,01,01,14.60
2015,07,09,01,02,14.60
2015,07,09,01,03,14.60
2015,07,09,01,04,14.50
2015,07,09,01,05,14.50
2015,07,09,01,06,14.50
2015,07,09,01,07,14.50
2015,07,09,01,08,14.50
2015,07,09,01,09,14.50
2015,07,09,01,10,14.50
2015,07,09,01,11,14.50
2015,07,09,01,12,14.50
2015,07,09,01,13,14.40
2015,07,09,01,14,14.40
2015,07,09,01,15,14.40
2015,07,09,01,16,14.40
2015,07,09,01,17,14.30
2015,07,09,01,18,14.30
2015,07,09,01,19,14.30
2015,07,09,01,20,14.30
2015,07,09,01,21,14.20
2015,07,09,01,22,14.20
2015,07,09,01,23,14.20
2015,07,09,01,24,14.20
2015,07,09,01,25,14.20
2015,07,09,01,26,14.20
2015,07,09,01,27,14.20
2015,07,09,01,28,14.20
2015,07,09,01,29,14.10
2015,07,09,01,30,14.10
2015,07,09,01,31,14.10
2015,07,09,01,32,14.10
2015,07,09,01,33,14.10
2015,07,09,01,34,14.10
2015,07,09,01,35,14.10
2015,07,09,01,36,14.00
2015,07,09,01,37,14.00
2015,07,09,01,38,14.00
2015,07,09,01,39,14.00
2015,07,09,01,40,14.00
2015,07,09,01,41,14.00
2015,07,09,01,42,14.00
2015,07,09,01,43,14.00
2015,07,09,01,44,13.90
2015,07,09,01,45,13.90
2015,07,09,01,46,13.90
2015,07,09,01,47,13.90
2015,07,09,01,48,13.90
2015,07,09,01,49,13.90
2015,07,09,01,50,13.90
2015,07,09,01,51,13.90
2015,07,09,01,52,13.90
2015,07,09,01,53,13.80
2015,07,09,01,54,13.80
2015,07,09,01,55,13.80
2015,07,09,01,56,13.80
2015,07,09,01,57,13.80
2015,07,09,01,58,13.70
2015,07,09,01,59,13.70
2015,07,09,02,00,13.70
2015,07,09,02,01,13.70
2015,07,09,02,02,13.70
2015,07,09,02,03,13.70
2015,07,09,02,04,13.70
2015,07,09,02,05,13.70
2015,07,09,02,06,13.70
2015,07,09,02,07,13.70
2015,07,09,02,08,13.70
2015,07,09,02,09,13.70
2015,07,09,02,10,13.70
2015,07,09,02,11,13.70
2015,07,09,02,12,13.70
2015,07,09,02,13,13.70
2015,07,09,02,14,13.70
2015,07,09,02,15,13.70
2015,07,09,02,16,13.70
2015,07,09,02,17,13.70
2015,07,09,02,18,13.70
2015,07,09,02,19,13.70
2015,07,09,02,20,13.70
2015,07,09,02,21,13.70
2015,07,09,02,22,13.70
2015,07,09,02,23,13.70
2015,07,09,02,24,13.70
2015,07,09,02,25,13.70
2015,07,09,02,26,13.70
2015,07,09,02,27,13.70
2015,07,09,02,28,13.70
2015,07,09,02,29,13.70
2015,07,09,02,30,13.70
2015,07,09,02,31,13.70
2015,07,09,02,32,13.70
2015,07,09,02,33,13.70
2015,07,09,02,34,13.70
2015,07,09,02,35,13.70
2015,07,09,02,36,13.70
2015,07,09,02,37,13.70
2015,07,09,02,38,13.70
2015,07,09,02,39,13.70
2015,07,09,02,40,13.70
2015,07,09,02,41,13.70
2015,07,09,02,42,13.70
2015,07,09,02,43,13.70
2015,07,09,02,44,13.70
2015,07,09,02,45,13.80
2015,07,09,02,46,13.80
2015,07,09,02,47,13.80
2015,07,09,02,48,13.80
2015,07,09,02,49,13.80
2015,07,09,02,50,13.80
2015,07,09,02,51,13.80
2015,07,09,02,52,13.80
2015,07,09,02,53,13.80
2015,07,09,02,54,13.80
2015,07,09,02,55,13.80
2015,07,09,02,56,13.70
2015,07,09,02,57,13.70
2015,07,09,02,58,13.70
2015,07,09,02,59,13.70
2015,07,09,03,00,13.70
2015,07,09,03,01,13.70
2015,07,09,03,02,13.70
2015,07,09,03,03,13.70
2015,07,09,03,04,13.70
2015,07,09,03,05,13.70
2015,07,09,03,06,13.70
2015,07,09,03,07,13.70
2015,07,09,03,08,13.70
2015,07,09,03,09,13.70
2015,07,09,03,10,13.70
2015,07,09,03,11,13.70
2015,07,09,03,12,13.70
2015,07,09,03,13,13.70
2015,07,09,03,14,13.70
2015,07,09,03,15,13.70
2015,07,09,03,16,13.70
2015,07,09,03,17,13.70
2015,07,09,03,18,13.70
2015,07,09,03,19,13.70
2015,07,09,03,20,13.70
2015,07,09,03,21,13.70
2015,07,09,03,22,13.70
2015,07,09,03,23,13.70
2015,07,09,03,24,13.70
2015,07,09,03,25,13.70
2015,07,09,03,26,13.60
2015,07,09,03,27,13.60
2015,07,09,03,28,13.60
2015,07,09,03,29,13.60
2015,07,09,03,30,13.60
2015,07,09,03,31,13.60
2015,07,09,03,32,13.60
2015,07,09,03,33,13.60
2015,07,09,03,34,13.60
2015,07,09,03,35,13.60
2015,07,09,03,36,13.60
2015,07,09,03,37,13.60
2015,07,09,03,38,13.50
2015,07,09,03,39,13.50
2015,07,09,03,40,13.50
2015,07,09,03,41,13.50
2015,07,09,03,42,13.50
2015,07,09,03,43,13.50
2015,07,09,03,44,13.40
2015,07,09,03,45,13.40
2015,07,09,03,46,13.40
2015,07,09,03,47,13.40
2015,07,09,03,48,13.40
2015,07,09,03,49,13.30
2015,07,09,03,50,13.30
2015,07,09,03,51,13.30
2015,07,09,03,52,13.30
2015,07,09,03,53,13.30
2015,07,09,03,54,13.30
2015,07,09,03,55,13.30
2015,07,09,03,56,13.30
2015,07,09,03,57,13.30
2015,07,09,03,58,13.30
2015,07,09,03,59,13.30
2015,07,09,04,00,13.30
2015,07,09,04,01,13.30
2015,07,09,04,02,13.30
2015,07,09,04,03,13.30
2015,07,09,04,04,13.30
2015,07,09,04,05,13.30
2015,07,09,04,06,13.30
2015,07,09,04,07,13.30
2015,07,09,04,08,13.30
2015,07,09,04,09,13.30
2015,07,09,04,10,13.30
2015,07,09,04,11,13.40
2015,07,09,04,12,13.40
2015,07,09,04,13,13.40
2015,07,09,04,14,13.40
2015,07,09,04,15,13.40
2015,07,09,04,16,13.40
2015,07,09,04,17,13.40
2015,07,09,04,18,13.40
2015,07,09,04,19,13.40
2015,07,09,04,20,13.40
2015,07,09,04,21,13.40
2015,07,09,04,22,13.40
2015,07,09,04,23,13.40
2015,07,09,04,24,13.40
2015,07,09,04,25,13.40
2015,07,09,04,26,13.40
2015,07,09,04,27,13.40
2015,07,09,04,28,13.40
2015,07,09,04,29,13.40
2015,07,09,04,30,13.40
2015,07,09,04,31,13.40
2015,07,09,04,32,13.40
2015,07,09,04,33,13.40
2015,07,09,04,34,13.40
2015,07,09,04,35,13.30
2015,07,09,04,36,13.30
2015,07,09,04,37,13.30
2015,07,09,04,38,13.30
2015,07,09,04,39,13.40
2015,07,09,04,40,13.40
2015,07,09,04,41,13.40
2015,07,09,04,42,13.40
2015,07,09,04,43,13.40
2015,07,09,04,44,13.40
2015,07,09,04,45,13.40
2015,07,09,04,46,13.40
2015,07,09,04,47,13.40
2015,07,09,04,48,13.40
2015,07,09,04,49,13.40
2015,07,09,04,50,13.40
2015,07,09,04,51,13.40
2015,07,09,04,52,13.40
2015,07,09,04,53,13.30
2015,07,09,04,54,13.30
2015,07,09,04,55,13.30
2015,07,09,04,56,13.30
2015,07,09,04,57,13.30
2015,07,09,04,58,13.30
2015,07,09,04,59,13.30
2015,07,09,05,00,13.30
2015,07,09,05,01,13.30
2015,07,09,05,02,13.30
2015,07,09,05,03,13.30
2015,07,09,05,04,13.30
2015,07,09,05,05,13.30
2015,07,09,05,06,13.30
2015,07,09,05,07,13.30
2015,07,09,05,08,13.30
2015,07,09,05,09,13.30
2015,07,09,05,10,13.30
2015,07,09,05,11,13.30
2015,07,09,05,12,13.30
2015,07,09,05,13,13.30
2015,07,09,05,14,13.30
2015,07,09,05,15,13.30
2015,07,09,05,16,13.30
2015,07,09,05,17,13.30
2015,07,09,05,18,13.30
2015,07,09,05,19,13.30
2015,07,09,05,20,13.30
2015,07,09,05,21,13.30
2015,07,09,05,22,13.20
2015,07,09,05,23,13.20
2015,07,09,05,24,13.20
2015,07,09,05,25,13.20
2015,07,09,05,26,13.20
2015,07,09,05,27,13.20
2015,07,09,05,28,13.10
2015,07,09,05,29,13.10
2015,07,09,05,30,13.10
2015,07,09,05,31,13.10
2015,07,09,05,32,13.10
2015,07,09,05,33,13.10
2015,07,09,05,34,13.20
2015,07,09,05,35,13.20
2015,07,09,05,36,13.20
2015,07,09,05,37,13.20
2015,07,09,05,38,13.20
2015,07,09,05,39,13.20
2015,07,09,05,40,13.10
2015,07,09,05,41,13.10
2015,07,09,05,42,13.10
2015,07,09,05,43,13.10
2015,07,09,05,44,13.10
2015,07,09,05,45,13.10
2015,07,09,05,46,13.10
2015,07,09,05,47,13.10
2015,07,09,05,48,13.10
2015,07,09,05,49,13.10
2015,07,09,05,50,13.10
2015,07,09,05,51,13.10
2015,07,09,05,52,13.00
2015,07,09,05,53,13.00
2015,07,09,05,54,13.00
2015,07,09,05,55,13.00
2015,07,09,05,56,13.00
2015,07,09,05,57,13.00
2015,07,09,05,58,13.00
2015,07,09,05,59,13.00
2015,07,09,06,00,13.00
2015,07,09,06,01,13.00
2015,07,09,06,02,13.00
2015,07,09,06,03,13.00
2015,07,09,06,04,13.00
2015,07,09,06,05,13.00
2015,07,09,06,06,13.00
2015,07,09,06,07,13.00
2015,07,09,06,08,13.00
2015,07,09,06,09,13.10
2015,07,09,06,10,13.10
2015,07,09,06,11,13.10
2015,07,09,06,12,13.10
2015,07,09,06,13,13.10
2015,07,09,06,14,13.10
2015,07,09,06,15,13.10
2015,07,09,06,16,13.10
2015,07,09,06,17,13.10
2015,07,09,06,18,13.10
2015,07,09,06,19,13.10
2015,07,09,06,20,13.10
2015,07,09,06,21,13.10
2015,07,09,06,22,13.10
2015,07,09,06,23,13.10
2015,07,09,06,24,13.10
2015,07,09,06,25,13.10
2015,07,09,06,26,13.10
2015,07,09,06,27,13.10
2015,07,09,06,28,13.10
2015,07,09,06,29,13.10
2015,07,09,06,30,13.20
2015,07,09,06,31,13.20
2015,07,09,06,32,13.20
2015,07,09,06,33,13.20
2015,07,09,06,34,13.20
2015,07,09,06,35,13.30
2015,07,09,06,36,13.30
2015,07,09,06,37,13.30
2015,07,09,06,38,13.30
2015,07,09,06,39,13.40
2015,07,09,06,40,13.40
2015,07,09,06,41,13.50
2015,07,09,06,42,13.50
2015,07,09,06,43,13.60
2015,07,09,06,44,13.60
2015,07,09,06,45,13.60
2015,07,09,06,46,13.70
2015,07,09,06,47,13.70
2015,07,09,06,48,13.70
2015,07,09,06,49,13.70
2015,07,09,06,50,13.80
2015,07,09,06,51,13.90
2015,07,09,06,52,13.90
2015,07,09,06,53,13.90
2015,07,09,06,54,14.00
2015,07,09,06,55,14.00
2015,07,09,06,56,14.00
2015,07,09,06,57,14.10
2015,07,09,06,58,14.10
2015,07,09,06,59,14.10
2015,07,09,07,00,14.10
2015,07,09,07,01,14.10
2015,07,09,07,02,14.10
2015,07,09,07,03,14.10
2015,07,09,07,04,14.20
2015,07,09,07,05,14.20
2015,07,09,07,06,14.20
2015,07,09,07,07,14.20
2015,07,09,07,08,14.30
2015,07,09,07,09,14.30
2015,07,09,07,10,14.40
2015,07,09,07,11,14.40
2015,07,09,07,12,14.50
2015,07,09,07,13,14.50
2015,07,09,07,14,14.60
2015,07,09,07,15,14.60
2015,07,09,07,16,14.60
2015,07,09,07,17,14.60
2015,07,09,07,18,14.70
2015,07,09,07,19,14.80
2015,07,09,07,20,14.80
2015,07,09,07,21,14.90
2015,07,09,07,22,15.00
2015,07,09,07,23,15.10
2015,07,09,07,24,15.10
2015,07,09,07,25,15.20
2015,07,09,07,26,15.30
2015,07,09,07,27,15.30
2015,07,09,07,28,15.30
2015,07,09,07,29,15.40
2015,07,09,07,30,15.40
2015,07,09,07,31,15.40
2015,07,09,07,32,15.50
2015,07,09,07,33,15.50
2015,07,09,07,34,15.50
2015,07,09,07,35,15.60
2015,07,09,07,36,15.70
2015,07,09,07,37,15.80
2015,07,09,07,38,15.80
2015,07,09,07,39,15.80
2015,07,09,07,40,15.90
2015,07,09,07,41,15.90
2015,07,09,07,42,16.00
2015,07,09,07,43,16.10
2015,07,09,07,44,16.10
2015,07,09,07,45,16.10
2015,07,09,07,46,16.20
2015,07,09,07,47,16.30
2015,07,09,07,48,16.30
2015,07,09,07,49,16.40
2015,07,09,07,50,16.40
2015,07,09,07,51,16.40
2015,07,09,07,52,16.60
2015,07,09,07,53,16.70
2015,07,09,07,54,16.80
2015,07,09,07,55,16.90
2015,07,09,07,56,16.90
2015,07,09,07,57,17.00
2015,07,09,07,58,17.00
2015,07,09,07,59,17.10
2015,07,09,08,00,17.20
2015,07,09,08,01,17.20
2015,07,09,08,02,17.20
2015,07,09,08,03,17.20
2015,07,09,08,04,17.30
2015,07,09,08,05,17.30
2015,07,09,08,06,17.40
2015,07,09,08,07,17.40
2015,07,09,08,08,17.50
2015,07,09,08,09,17.50
2015,07,09,08,10,17.50
2015,07,09,08,11,17.50
2015,07,09,08,12,17.50
2015,07,09,08,13,17.50
2015,07,09,08,14,17.50
2015,07,09,08,15,17.60
2015,07,09,08,16,17.60
2015,07,09,08,17,17.70
2015,07,09,08,18,17.80
2015,07,09,08,19,17.90
2015,07,09,08,20,17.90
2015,07,09,08,21,17.90
2015,07,09,08,22,17.90
2015,07,09,08,23,18.00
2015,07,09,08,24,18.10
2015,07,09,08,25,18.10
2015,07,09,08,26,18.10
2015,07,09,08,27,18.10
2015,07,09,08,28,18.10
2015,07,09,08,29,18.10
2015,07,09,08,30,18.10
2015,07,09,08,31,18.10
2015,07,09,08,32,18.20
2015,07,09,08,33,18.20
2015,07,09,08,34,18.30
2015,07,09,08,35,18.40
2015,07,09,08,36,18.40
2015,07,09,08,37,18.50
2015,07,09,08,38,18.60
2015,07,09,08,39,18.70
2015,07,09,08,40,18.80
2015,07,09,08,41,18.90
2015,07,09,08,42,19.10
2015,07,09,08,43,19.10
2015,07,09,08,44,19.20
2015,07,09,08,45,19.20
2015,07,09,08,46,19.30
2015,07,09,08,47,19.30
2015,07,09,08,48,19.40
2015,07,09,08,49,19.40
2015,07,09,08,50,19.50
2015,07,09,08,51,19.60
2015,07,09,08,52,19.70
2015,07,09,08,53,19.70
2015,07,09,08,54,19.80
2015,07,09,08,55,19.80
2015,07,09,08,56,19.80
2015,07,09,08,57,19.80
2015,07,09,08,58,19.90
2015,07,09,08,59,19.90
2015,07,09,09,00,19.90
2015,07,09,09,01,19.90
2015,07,09,09,02,19.90
2015,07,09,09,03,19.90
2015,07,09,09,04,19.90
2015,07,09,09,05,19.80
2015,07,09,09,06,19.80
2015,07,09,09,07,19.70
2015,07,09,09,08,19.70
2015,07,09,09,09,19.70
2015,07,09,09,10,19.70
2015,07,09,09,11,19.80
2015,07,09,09,12,19.90
2015,07,09,09,13,19.90
2015,07,09,09,14,20.00
2015,07,09,09,15,20.10
2015,07,09,09,16,20.10
2015,07,09,09,17,20.10
2015,07,09,09,18,20.20
2015,07,09,09,19,20.20
2015,07,09,09,20,20.30
2015,07,09,09,21,20.40
2015,07,09,09,22,20.40
2015,07,09,09,23,20.40
2015,07,09,09,24,20.40
2015,07,09,09,25,20.50
2015,07,09,09,26,20.50
2015,07,09,09,27,20.50
2015,07,09,09,28,20.60
2015,07,09,09,29,20.50
2015,07,09,09,30,20.40
2015,07,09,09,31,20.40
2015,07,09,09,32,20.40
2015,07,09,09,33,20.40
2015,07,09,09,34,20.50
2015,07,09,09,35,20.60
2015,07,09,09,36,20.60
2015,07,09,09,37,20.60
2015,07,09,09,38,20.50
2015,07,09,09,39,20.40
2015,07,09,09,40,20.40
2015,07,09,09,41,20.40
2015,07,09,09,42,20.40
2015,07,09,09,43,20.50
2015,07,09,09,44,20.70
2015,07,09,09,45,20.80
2015,07,09,09,46,20.90
2015,07,09,09,47,21.00
2015,07,09,09,48,21.10
2015,07,09,09,49,21.20
2015,07,09,09,50,21.30
2015,07,09,09,51,21.30
2015,07,09,09,52,21.40
2015,07,09,09,53,21.40
2015,07,09,09,54,21.40
2015,07,09,09,55,21.40
2015,07,09,09,56,21.30
2015,07,09,09,57,21.30
2015,07,09,09,58,21.30
2015,07,09,09,59,21.30
2015,07,09,10,00,21.40
2015,07,09,10,01,21.60
2015,07,09,10,02,21.70
2015,07,09,10,03,21.80
2015,07,09,10,04,21.80
2015,07,09,10,05,21.90
2015,07,09,10,06,21.90
2015,07,09,10,07,21.90
2015,07,09,10,08,21.70
2015,07,09,10,09,21.50
2015,07,09,10,10,21.40
2015,07,09,10,11,21.40
2015,07,09,10,12,21.40
2015,07,09,10,13,21.50
2015,07,09,10,14,21.60
2015,07,09,10,15,21.60
2015,07,09,10,16,21.60
2015,07,09,10,17,21.60
2015,07,09,10,18,21.60
2015,07,09,10,19,21.40
2015,07,09,10,20,21.40
2015,07,09,10,21,21.50
2015,07,09,10,22,21.60
2015,07,09,10,23,21.60
2015,07,09,10,24,21.70
2015,07,09,10,25,21.70
2015,07,09,10,26,21.70
2015,07,09,10,27,21.80
2015,07,09,10,28,21.90
2015,07,09,10,29,22.00
2015,07,09,10,30,22.00
2015,07,09,10,31,21.90
2015,07,09,10,32,21.80
2015,07,09,10,33,21.60
2015,07,09,10,34,21.60
2015,07,09,10,35,21.70
2015,07,09,10,36,21.80
2015,07,09,10,37,21.80
2015,07,09,10,38,21.80
2015,07,09,10,39,21.90
2015,07,09,10,40,22.00
2015,07,09,10,41,22.10
2015,07,09,10,42,22.30
2015,07,09,10,43,22.40
2015,07,09,10,44,22.60
2015,07,09,10,45,22.70
2015,07,09,10,46,22.80
2015,07,09,10,47,22.80
2015,07,09,10,48,22.80
2015,07,09,10,49,22.90
2015,07,09,10,50,22.90
2015,07,09,10,51,22.90
2015,07,09,10,52,22.90
2015,07,09,10,53,22.90
2015,07,09,10,54,23.00
2015,07,09,10,55,23.10
2015,07,09,10,56,23.10
2015,07,09,10,57,23.00
2015,07,09,10,58,22.80
2015,07,09,10,59,22.60
2015,07,09,11,00,22.60
2015,07,09,11,01,22.40
2015,07,09,11,02,22.40
2015,07,09,11,03,22.30
2015,07,09,11,04,22.20
2015,07,09,11,05,22.10
2015,07,09,11,06,22.10
2015,07,09,11,07,22.00
2015,07,09,11,08,21.90
2015,07,09,11,09,21.80
2015,07,09,11,10,21.80
2015,07,09,11,11,22.00
2015,07,09,11,12,22.10
2015,07,09,11,13,22.30
2015,07,09,11,14,22.50
2015,07,09,11,15,22.50
2015,07,09,11,16,22.50
2015,07,09,11,17,22.40
2015,07,09,11,18,22.40
2015,07,09,11,19,22.50
2015,07,09,11,20,22.60
2015,07,09,11,21,22.80
2015,07,09,11,22,22.90
2015,07,09,11,23,23.10
2015,07,09,11,24,23.20
2015,07,09,11,25,23.20
2015,07,09,11,26,23.30
2015,07,09,11,27,23.30
2015,07,09,11,28,23.30
2015,07,09,11,29,23.30
2015,07,09,11,30,23.30
2015,07,09,11,31,23.30
2015,07,09,11,32,23.30
2015,07,09,11,33,23.40
2015,07,09,11,34,23.40
2015,07,09,11,35,23.40
2015,07,09,11,36,23.50
2015,07,09,11,37,23.60
2015,07,09,11,38,23.50
2015,07,09,11,39,23.40
2015,07,09,11,40,23.40
2015,07,09,11,41,23.50
2015,07,09,11,42,23.60
2015,07,09,11,43,23.60
2015,07,09,11,44,23.50
2015,07,09,11,45,23.40
2015,07,09,11,46,23.30
2015,07,09,11,47,23.30
2015,07,09,11,48,23.30
2015,07,09,11,49,23.30
2015,07,09,11,50,23.30
2015,07,09,11,51,23.40
2015,07,09,11,52,23.40
2015,07,09,11,53,23.50
2015,07,09,11,54,23.60
2015,07,09,11,55,23.70
2015,07,09,11,56,23.70
2015,07,09,11,57,23.80
2015,07,09,11,58,23.80
2015,07,09,11,59,23.80
2015,07,09,12,00,23.80
2015,07,09,12,01,23.70
2015,07,09,12,02,23.90
2015,07,09,12,03,24.00
2015,07,09,12,04,23.90
2015,07,09,12,05,23.80
2015,07,09,12,06,23.90
2015,07,09,12,07,23.90
2015,07,09,12,08,23.90
2015,07,09,12,09,23.90
2015,07,09,12,10,23.90
2015,07,09,12,11,24.00
2015,07,09,12,12,23.90
2015,07,09,12,13,23.80
2015,07,09,12,14,23.70
2015,07,09,12,15,23.70
2015,07,09,12,16,23.80
2015,07,09,12,17,23.80
2015,07,09,12,18,23.90
2015,07,09,12,19,23.90
2015,07,09,12,20,23.80
2015,07,09,12,21,23.80
2015,07,09,12,22,23.80
2015,07,09,12,23,23.90
2015,07,09,12,24,23.90
2015,07,09,12,25,23.90
2015,07,09,12,26,23.90
2015,07,09,12,27,23.80
2015,07,09,12,28,23.80
2015,07,09,12,29,24.00
2015,07,09,12,30,24.10
2015,07,09,12,31,24.10
2015,07,09,12,32,24.10
2015,07,09,12,33,24.20
2015,07,09,12,34,24.30
2015,07,09,12,35,24.40
2015,07,09,12,36,24.40
2015,07,09,12,37,24.50
2015,07,09,12,38,24.50
2015,07,09,12,39,24.40
2015,07,09,12,40,24.40
2015,07,09,12,41,24.40
2015,07,09,12,42,24.20
2015,07,09,12,43,24.10
2015,07,09,12,44,24.20
2015,07,09,12,45,24.30
2015,07,09,12,46,24.30
2015,07,09,12,47,24.30
2015,07,09,12,48,24.40
2015,07,09,12,49,24.40
2015,07,09,12,50,24.40
2015,07,09,12,51,24.40
2015,07,09,12,52,24.40
2015,07,09,12,53,24.50
2015,07,09,12,54,24.60
2015,07,09,12,55,24.60
2015,07,09,12,56,24.60
2015,07,09,12,57,24.60
2015,07,09,12,58,24.60
2015,07,09,12,59,24.50
2015,07,09,13,00,24.70
2015,07,09,13,01,24.80
2015,07,09,13,02,24.90
2015,07,09,13,03,25.00
2015,07,09,13,04,25.00
2015,07,09,13,05,25.00
2015,07,09,13,06,25.00
2015,07,09,13,07,24.90
2015,07,09,13,08,24.80
2015,07,09,13,09,24.80
2015,07,09,13,10,24.80
2015,07,09,13,11,24.80
2015,07,09,13,12,24.80
2015,07,09,13,13,24.80
2015,07,09,13,14,24.80
2015,07,09,13,15,24.80
2015,07,09,13,16,24.80
2015,07,09,13,17,24.90
2015,07,09,13,18,24.80
2015,07,09,13,19,24.90
2015,07,09,13,20,25.00
2015,07,09,13,21,25.00
2015,07,09,13,22,25.10
2015,07,09,13,23,25.10
2015,07,09,13,24,25.10
2015,07,09,13,25,25.20
2015,07,09,13,26,25.30
2015,07,09,13,27,25.30
2015,07,09,13,28,25.30
2015,07,09,13,29,25.40
2015,07,09,13,30,25.40
2015,07,09,13,31,25.40
2015,07,09,13,32,25.40
2015,07,09,13,33,25.40
2015,07,09,13,34,25.30
2015,07,09,13,35,25.40
2015,07,09,13,36,25.40
2015,07,09,13,37,25.40
2015,07,09,13,38,25.30
2015,07,09,13,39,25.30
2015,07,09,13,40,25.40
2015,07,09,13,41,25.50
2015,07,09,13,42,25.60
2015,07,09,13,43,25.70
2015,07,09,13,44,25.90
2015,07,09,13,45,25.90
2015,07,09,13,46,25.80
2015,07,09,13,47,25.90
2015,07,09,13,48,26.00
2015,07,09,13,49,25.90
2015,07,09,13,50,25.90
2015,07,09,13,51,25.90
2015,07,09,13,52,25.90
2015,07,09,13,53,25.90
2015,07,09,13,54,25.90
2015,07,09,13,55,25.80
2015,07,09,13,56,25.80
2015,07,09,13,57,25.80
2015,07,09,13,58,25.80
2015,07,09,13,59,25.80
2015,07,09,14,00,25.70
2015,07,09,14,01,25.60
2015,07,09,14,02,25.50
2015,07,09,14,03,25.50
2015,07,09,14,04,25.50
2015,07,09,14,05,25.40
2015,07,09,14,06,25.30
2015,07,09,14,07,25.40
2015,07,09,14,08,25.50
2015,07,09,14,09,25.70
2015,07,09,14,10,25.80
2015,07,09,14,11,25.90
2015,07,09,14,12,25.90
2015,07,09,14,13,26.00
2015,07,09,14,14,26.10
2015,07,09,14,15,26.00
2015,07,09,14,16,26.10
2015,07,09,14,17,26.20
2015,07,09,14,18,26.40
2015,07,09,14,19,26.60
2015,07,09,14,20,26.40
2015,07,09,14,21,26.30
2015,07,09,14,22,26.30
2015,07,09,14,23,26.20
2015,07,09,14,24,26.20
2015,07,09,14,25,26.20
2015,07,09,14,26,26.30
2015,07,09,14,27,26.40
2015,07,09,14,28,26.40
2015,07,09,14,29,26.50
2015,07,09,14,30,26.60
2015,07,09,14,31,26.60
2015,07,09,14,32,26.50
2015,07,09,14,33,26.40
2015,07,09,14,34,26.50
2015,07,09,14,35,26.60
2015,07,09,14,36,26.50
2015,07,09,14,37,26.40
2015,07,09,14,38,26.40
2015,07,09,14,39,26.60
2015,07,09,14,40,26.60
2015,07,09,14,41,26.60
2015,07,09,14,42,26.60
2015,07,09,14,43,26.60
2015,07,09,14,44,26.80
2015,07,09,14,45,26.80
2015,07,09,14,46,26.80
2015,07,09,14,47,26.80
2015,07,09,14,48,26.80
2015,07,09,14,49,26.80
2015,07,09,14,50,26.70
2015,07,09,14,51,26.70
2015,07,09,14,52,26.80
2015,07,09,14,53,26.90
2015,07,09,14,54,27.10
2015,07,09,14,55,27.30
2015,07,09,14,56,27.30
2015,07,09,14,57,27.30
2015,07,09,14,58,27.30
2015,07,09,14,59,27.40
2015,07,09,15,00,27.40
2015,07,09,15,01,27.30
2015,07,09,15,02,27.40
2015,07,09,15,03,27.50
2015,07,09,15,04,27.60
2015,07,09,15,05,27.40
2015,07,09,15,06,27.30
2015,07,09,15,07,27.30
2015,07,09,15,08,27.30
2015,07,09,15,09,27.30
2015,07,09,15,10,27.30
2015,07,09,15,11,27.30
2015,07,09,15,12,27.20
2015,07,09,15,13,27.30
2015,07,09,15,14,27.30
2015,07,09,15,15,27.30
2015,07,09,15,16,27.30
2015,07,09,15,17,27.30
2015,07,09,15,18,27.30
2015,07,09,15,19,27.30
2015,07,09,15,20,27.30
2015,07,09,15,21,27.20
2015,07,09,15,22,27.20
2015,07,09,15,23,27.10
2015,07,09,15,24,27.10
2015,07,09,15,25,27.20
2015,07,09,15,26,27.20
2015,07,09,15,27,27.20
2015,07,09,15,28,27.20
2015,07,09,15,29,27.30
2015,07,09,15,30,27.20
2015,07,09,15,31,27.10
2015,07,09,15,32,27.10
2015,07,09,15,33,27.00
2015,07,09,15,34,26.90
2015,07,09,15,35,27.00
2015,07,09,15,36,27.10
2015,07,09,15,37,27.20
2015,07,09,15,38,27.20
2015,07,09,15,39,27.20
2015,07,09,15,40,27.20
2015,07,09,15,41,27.10
2015,07,09,15,42,27.00
2015,07,09,15,43,26.90
2015,07,09,15,44,26.90
2015,07,09,15,45,26.90
2015,07,09,15,46,27.00
2015,07,09,15,47,27.10
2015,07,09,15,48,27.00
2015,07,09,15,49,26.90
2015,07,09,15,50,26.90
2015,07,09,15,51,26.80
2015,07,09,15,52,26.80
2015,07,09,15,53,26.70
2015,07,09,15,54,26.60
2015,07,09,15,55,26.50
2015,07,09,15,56,26.40
2015,07,09,15,57,26.50
2015,07,09,15,58,26.60
2015,07,09,15,59,26.80
2015,07,09,16,00,26.80
2015,07,09,16,01,26.80
2015,07,09,16,02,26.90
2015,07,09,16,03,26.90
2015,07,09,16,04,26.90
2015,07,09,16,05,26.80
2015,07,09,16,06,26.90
2015,07,09,16,07,27.00
2015,07,09,16,08,27.00
2015,07,09,16,09,26.90
2015,07,09,16,10,26.80
2015,07,09,16,11,26.70
2015,07,09,16,12,26.70
2015,07,09,16,13,26.70
2015,07,09,16,14,26.70
2015,07,09,16,15,26.70
2015,07,09,16,16,26.60
2015,07,09,16,17,26.70
2015,07,09,16,18,26.70
2015,07,09,16,19,26.70
2015,07,09,16,20,26.80
2015,07,09,16,21,26.80
2015,07,09,16,22,26.90
2015,07,09,16,23,27.00
2015,07,09,16,24,27.10
2015,07,09,16,25,27.00
2015,07,09,16,26,26.90
2015,07,09,16,27,27.10
2015,07,09,16,28,27.20
2015,07,09,16,29,27.30
2015,07,09,16,30,27.30
2015,07,09,16,31,27.20
2015,07,09,16,32,27.20
2015,07,09,16,33,27.30
2015,07,09,16,34,27.30
2015,07,09,16,35,27.20
2015,07,09,16,36,27.10
2015,07,09,16,37,27.00
2015,07,09,16,38,26.90
2015,07,09,16,39,26.80
2015,07,09,16,40,26.80
2015,07,09,16,41,26.80
2015,07,09,16,42,26.80
2015,07,09,16,43,26.70
2015,07,09,16,44,26.60
2015,07,09,16,45,26.60
2015,07,09,16,46,26.60
2015,07,09,16,47,26.50
2015,07,09,16,48,26.40
2015,07,09,16,49,26.40
2015,07,09,16,50,26.30
2015,07,09,16,51,26.30
2015,07,09,16,52,26.30
2015,07,09,16,53,26.30
2015,07,09,16,54,26.40
2015,07,09,16,55,26.40
2015,07,09,16,56,26.40
2015,07,09,16,57,26.50
2015,07,09,16,58,26.60
2015,07,09,16,59,26.60
2015,07,09,17,00,26.60
2015,07,09,17,01,26.70
2015,07,09,17,02,26.80
2015,07,09,17,03,26.80
2015,07,09,17,04,26.90
2015,07,09,17,05,27.10
2015,07,09,17,06,27.20
2015,07,09,17,07,27.20
2015,07,09,17,08,27.30
2015,07,09,17,09,27.30
2015,07,09,17,10,27.30
2015,07,09,17,11,27.30
2015,07,09,17,12,27.30
2015,07,09,17,13,27.40
2015,07,09,17,14,27.50
2015,07,09,17,15,27.60
2015,07,09,17,16,27.70
2015,07,09,17,17,27.70
2015,07,09,17,18,27.70
2015,07,09,17,19,27.70